This is the latest recevied weather packets stored in our database for station/object YB2YEN-13. If no packets are shown the sender has not sent any weather packets the latest 10 day(s).
| Time | Temp. | Humidity | Pressure | Rain* | Wind** | Luminosity | Snow |
|---|---|---|---|---|---|---|---|
| 1777713880 | 29.44° C | 99% | 975 hPa | - | - | 0 W/m² | - |
| 1777713558 | 30° C | 99% | 975 hPa | - | - | 0 W/m² | - |
| 1777713236 | 30° C | 99% | 975 hPa | - | - | 0 W/m² | - |
| 1777712914 | 30° C | 99% | 975 hPa | - | - | 0 W/m² | - |
| 1777712592 | 30.56° C | 99% | 975 hPa | - | - | 0 W/m² | - |
| 1777712270 | 31.11° C | 99% | 975 hPa | - | - | 0 W/m² | - |
| 1777711948 | 31.11° C | 99% | 975 hPa | - | - | 0 W/m² | - |
| 1777711626 | 31.11° C | 99% | 975 hPa | - | - | 0 W/m² | - |
| 1777711304 | 30.56° C | 99% | 975 hPa | - | - | 0 W/m² | - |
| 1777710982 | 31.11° C | 99% | 975 hPa | - | - | 0 W/m² | - |
| 1777710660 | 31.67° C | 99% | 975 hPa | - | - | 0 W/m² | - |
| 1777710338 | 32.78° C | 84% | 975 hPa | - | - | 0 W/m² | - |
| 1777710016 | 32.78° C | 89% | 975 hPa | - | - | 0 W/m² | - |
| 1777709694 | 32.78° C | 93% | 975 hPa | - | - | 0 W/m² | - |
| 1777709372 | 32.78° C | 87% | 975 hPa | - | - | 0 W/m² | - |
| 1777709051 | 32.22° C | 88% | 975 hPa | - | - | 0 W/m² | - |
| 1777708728 | 31.67° C | 91% | 975 hPa | - | - | 0 W/m² | - |
| 1777708406 | 32.22° C | 94% | 975 hPa | - | - | 0 W/m² | - |
| 1777708084 | 31.67° C | 95% | 975 hPa | - | - | 0 W/m² | - |
| 1777707762 | 31.11° C | 99% | 975 hPa | - | - | 0 W/m² | - |
| 1777707440 | 30.56° C | 93% | 975 hPa | - | - | 0 W/m² | - |
| 1777707118 | 31.11° C | 95% | 975 hPa | - | - | 0 W/m² | - |
| 1777706796 | 31.11° C | 99% | 975 hPa | - | - | 0 W/m² | - |
| 1777706474 | 31.11° C | 85% | 975 hPa | - | - | 0 W/m² | - |
| 1777706152 | 31.11° C | 82% | 975 hPa | - | - | 0 W/m² | - |
* Rain since midnight (hover to see other rain measurements)
** Current wind speed in m/s (hover to see current wind gust speed)